Simultaneous Nadir Overpasses (SNOs) Predictions

Prediction of SNOs between GOES-17 and TERRA Satellite Orbit:

Table of predicted SNOs for the next 14.0 days since TLE Epoch: 5/16/2025
Index Date Time (GOES-17) GOES-17 Lat,Lon TERRA Lat,Lon Distance(km) Time Diff (sec)
1 05/17/2025 04:35:54 -0.03,-104.37 -0.68,-107.48 353.02 80
2 05/19/2025 04:14:09 -0.02,-104.37 0.30,-102.88 169.01 80
3 05/19/2025 16:33:38 0.02,-104.44 0.65,-107.63 362.02 80
4 05/21/2025 16:17:12 0.01,-104.44 -0.28,-103.03 160.50 80
5 05/22/2025 04:36:49 -0.01,-104.37 -0.71,-107.80 389.76 80
6 05/24/2025 04:15:03 -0.01,-104.37 0.24,-103.20 132.84 80
7 05/24/2025 16:34:31 0.01,-104.44 0.77,-107.94 398.41 80
8 05/26/2025 16:18:05 0.00,-104.43 -0.19,-103.34 123.86 80
9 05/27/2025 04:37:43 -0.00,-104.36 -0.77,-108.12 426.31 80
10 05/29/2025 04:15:56 0.01,-104.36 0.16,-103.51 95.69 80
11 05/29/2025 16:35:25 -0.01,-104.42 0.80,-108.25 435.94 80
